ORBCOMM FM30 [-]

Last updated on Fri Dec 29 2023 00:02:54 GMT+0000 (Coordinated Universal Time)

1 25980U 99065A 23362.11714543 .00001898 00000+0 71358-3 0 9997 2 25980 45.0314 106.3835 0007506 205.1999 154.8482 14.34706820257788
UTC large
Height (km)
Speed (km/s)
/
Latitude / Longitude
Inclination (degrees)
Orbital Period (minutes)
Azimuth
Elevation
Range (km)
Doppler Factor

Next 0 passes for location: London (51.5072 / 0.1276)

Sorry there are no passes over London.